Вернуться в каталог

SL-16 DEB

АктивенLEO
NORAD 22602·DEBRIS·🇷🇺 Russia

Запущен Mar 26, 1993 с Baikonur Cosmodrome

Loading…

Ближайшие Пролёты (ближайшие 24 часа)

TLE

СвежийSource: Space-Track

Эпоха: Sep 14, 2026, 11:02 UTC

1 22602U 93016L   26257.46025854 -.00000013  00000-0  27515-4 0  9996
2 22602  71.0446 137.8490 0200442 325.4307 212.4033 13.74173413677407

Отслеживайте SL-16 DEB в реальном времени с AllMySat

Download on the App Store